Regional Weather Roundup
Issued by NWS

Home | Current Version | Previous Version | Graphics & Text | Print | Product List | Glossary On
Versions: 1 2 3 4 5 6 7 8 9 10 11 12 13 14 15 16 17 18 19 20 21 22 23 24 25 26 27 28 29 30 31 32 33 34 35 36 37 38 39 40 41 42 43 44 45 46 47 48 49 50
000
ASUS45 KBOU 052007
RWRCO

WEATHER ROUNDUP FOR COLORADO
NATIONAL WEATHER SERVICE DENVER/BOULDER CO
100 PM MST MON DEC 05 2016

NOTE: "FAIR" INDICATES FEW OR NO CLOUDS BELOW 12000 FEET WITH NO
SIGNIFICANT WEATHER AND/OR OBSTRUCTIONS TO VISIBILITY.

COZ001>005-013-030-031-052100-
...NORTHWEST COLORADO...

CITY           SKY/WX    TMP DP  RH WIND       PRES   REMARKS
CRAIG          CLOUDY    24   0  35 N13G24    29.87R WCI  12
HAYDEN         CLOUDY    21   1  42 NW21G31   29.83S WCI   6
MEEKER         CLOUDY    32  17  54 NW9G21    29.81F WCI  24
MOUNT WERNER   NOT AVBL
STEAMBOAT SPGS CLOUDY    21   6  51 W17       29.81F WCI   7
WALDEN           N/A     18   9  68 W20G25    29.75R WCI   1
$$

COZ006>008-011-052100-
...WEST CENTRAL VALLEYS...

CITY           SKY/WX    TMP DP  RH WIND       PRES   REMARKS
GRAND JUNCTION FAIR      44  18  35 NW13      29.82F
MONTROSE       FAIR      43  16  33 NW8       29.83F
EAGLE          SUNNY     41  16  36 W25G37    29.75F
RIFLE          FAIR      46  17  31 W22G28    29.76F
DELTA          FAIR      53  18  25 W14G21    29.81F
NUCLA          FAIR      46  16  29 W8G16     29.86F
$$

COZ017>023-064>068-052100-
...SOUTHWEST COLORADO...

CITY           SKY/WX    TMP DP  RH WIND       PRES   REMARKS
DURANGO        FAIR      46  16  30 SW16G22   29.81F
CORTEZ         FAIR      47  16  29 NW12G21   29.86F
PAGOSA SPRINGS FAIR      39  14  36 SE5       29.83F
TELLURIDE      FAIR      35  13  41 W15G23    29.87F WCI  25
WOLF CREEK PAS FAIR      21  12  68 SW15G23   29.88F WCI   8
$$

COZ009-010-012-014-032>034-037-058>063-052100-
...CENTRAL COLORADO...

CITY           SKY/WX    TMP DP  RH WIND       PRES   REMARKS
ASPEN          PTSUNNY   37  10  32 N14G30    29.72F
BUENA VISTA    PTSUNNY   39   8  28 W15G28    29.72F
COPPER MTN     NOT AVBL
BERTHOUD PASS  SNOW      10  -2  56 W40G61    29.59F VSB 1/4 WCI -14
COTTONWOOD PAS CLOUDY    32   9  37 W14G25    29.73F WCI  22
GUNNISON       FAIR      37  15  40 W13G18    29.79F
KREMMLING      CLOUDY    28  18  64 N17G33    29.74R WCI  16
LEADVILLE      CLOUDY    24   7  48 W14G22    29.71F WCI  12
MONARCH PASS   PTSUNNY   19  10  68 W43G60    29.84S WCI  -2
SALIDA         FAIR      43  11  27 SW21G33   29.81S
SUNLIGHT       CLOUDY    23  16  74 SW13G23   29.77F WCI  11
WILKERSON PASS CLOUDY    28  12  50 SW7G22    29.74F WCI  21
$$

COZ069>075-052100-
...SAN LUIS VALLEY/SANGRE DE CRISTO MOUNTAINS...

CITY           SKY/WX    TMP DP  RH WIND       PRES   REMARKS
ALAMOSA        FAIR      39  16  39 NW7       29.74F
LA VETA PASS   FAIR      37  14  38 NE15G35   29.76F
SAGUACHE       FAIR      45  10  24 NW26G37   29.74F
$$

COZ035-036-038>040-052100-
...NORTHERN COLORADO FRONT RANGE...

CITY           SKY/WX    TMP DP  RH WIND       PRES   REMARKS
DENVER INTL AP FAIR      53   9  17 W35G40    29.59F
DMNS CITY PARK   N/A     51  10  18 W17G28    29.62S
AURORA         MOSUNNY   53   8  16 W24G33    29.61F
FRONT RANGE AP MOSUNNY   55   9  15 W28G39    29.61
ERIE MUNI ARPT FAIR      52  12  20 W21G26    29.62S
BOULDER MUN AP CLOUDY    46  18  31 W24       29.62F
CENTENNIAL     PTSUNNY   52  10  18 W15G24    29.61F
BROOMFIELD     MOSUNNY   50  12  22 SW20G28   29.63F
FORT COLLINS   FAIR      48  12  23 W17G24    29.61F
LONGMONT       PTSUNNY   51  18  27 SW14      29.64F
$$

COZ041-046-047-076>085-087-088-052100-
...PIKES PEAK/PALMER DIVIDE AND SOUTHERN FOOTHILLS...

CITY           SKY/WX    TMP DP  RH WIND       PRES   REMARKS
COLO. SPRINGS  FAIR      54   4  13 W24G32    29.62S
A. F. ACADEMY  FAIR      50   8  18 W22G35    29.64R
SCHRIEVER AFB  NOT AVBL
ELLICOTT       FAIR     N/A N/A N/A NW28G36   29.61S
FALCON         FAIR      50  11  21 W35G41    29.65S
FORT CARSON    FAIR      56  11  16 W24       29.59S
LIMON          CLOUDY    53  18  25 N13       29.60S
MONUMENT HILL  FAIR      45  10  24 W20G33    29.66F
TRINIDAD       FAIR      60  10  14 CALM      29.60F
$$

COZ042>045-048>051-090-091-052100-
...NORTHEAST COLORADO...

CITY           SKY/WX    TMP DP  RH WIND       PRES   REMARKS
GREELEY ARPT   NOT AVBL
AKRON          PTSUNNY   49  14  24 NW23G33   29.62R
BURLINGTON     FAIR      60  16  18 E13       29.57R
WRAY           NOT AVBL
STERLING       FAIR      48  12  23 NW37G43   29.61S
HOLYOKE        FAIR      54  18  24 NW26G37   29.62R
FORT MORGAN    FAIR      47  10  22 NW26G37   29.62S
$$

COZ086-089-092>099-052100-
...SOUTHEAST COLORADO...

CITY           SKY/WX    TMP DP  RH WIND       PRES   REMARKS
PUEBLO         FAIR      61  12  14 NW37G46   29.58S
LA JUNTA       FAIR      66  17  15 NW24G37   29.56F
LAMAR          FAIR      69  15  12 W31G44    29.50F HAZE
SPRINGFIELD      N/A     67  17  14 NW17G26   29.54F
$$



USA.gov is the U.S. government's official web portal to all federal, state and local government web resources and services.